Total_Precipitation_Accumulation
1.62 1.81 1.80 1.64 1.63 1.75 1.70 1.67 1.80 1.84 1.82 1.87 1.88 1.85 1.84 1.98 2.20 2.40 2.38 2.52 2.64 2.70 2.70 2.61 2.49 2.53 2.67 2.61 2.74 2.89 3.11 3.32 3.08 2.76 2.62 2.56 2.54 2.34 2.17 1.88 1.64 1.51 1.39
1.87 2.11 2.11 1.81 1.64 1.59 1.49 1.50 1.67 1.86 1.89 1.85 1.84 1.81 1.77 1.87 2.13 2.32 2.43 2.68 2.81 2.73 2.65 2.59 2.48 2.58 2.68 2.65 2.71 2.72 2.78 3.06 2.98 2.78 2.73 2.77 2.64 2.40 2.28 2.08 1.73 1.54 1.54
1.67 1.93 1.88 1.64 1.49 1.47 1.48 1.53 1.66 1.80 1.81 1.77 1.79 1.85 1.97 2.09 2.28 2.41 2.51 2.69 2.66 2.57 2.59 2.51 2.40 2.46 2.42 2.48 2.52 2.50 2.49 2.60 2.77 2.68 2.59 2.67 2.58 2.37 2.28 2.12 2.00 2.08 1.90
1.25 1.51 1.52 1.39 1.34 1.37 1.43 1.45 1.45 1.49 1.55 1.62 1.82 2.06 2.22 2.35 2.43 2.48 2.47 2.45 2.45 2.37 2.28 2.20 2.20 2.30 2.36 2.37 2.30 2.28 2.34 2.48 2.57 2.58 2.56 2.64 2.65 2.60 2.46 2.34 2.35 2.31 2.15
1.16 1.36 1.33 1.29 1.29 1.26 1.27 1.36 1.42 1.48 1.53 1.75 1.93 2.03 2.08 2.14 2.22 2.32 2.32 2.27 2.23 2.14 2.03 1.85 1.88 2.17 2.30 2.28 2.11 2.18 2.27 2.37 2.45 2.56 2.60 2.67 2.73 2.86 2.62 2.36 2.30 2.37 2.25
1.05 1.26 1.25 1.22 1.21 1.15 1.20 1.30 1.45 1.56 1.72 1.90 1.92 1.90 1.87 1.62 1.72 1.84 1.87 1.90 1.90 1.87 1.77 1.71 1.72 1.82 1.84 1.88 1.86 1.86 1.92 2.01 2.21 2.47 2.57 2.57 2.55 2.64 2.70 2.58 2.48 2.43 2.40
1.03 1.20 1.28 1.25 1.27 1.25 1.22 1.39 1.58 1.75 1.91 2.02 1.98 1.92 1.82 1.74 1.63 1.52 1.50 1.55 1.68 1.71 1.72 1.77 1.56 1.43 1.55 1.58 1.69 1.66 1.61 1.69 1.81 2.05 2.26 2.28 2.35 2.36 2.59 2.61 2.66 2.72 2.69
1.08 1.29 1.37 1.31 1.37 1.45 1.45 1.54 1.76 1.98 2.12 2.14 2.10 2.01 1.94 1.87 1.77 1.55 1.51 1.47 1.60 1.64 1.63 1.65 1.62 1.54 1.52 1.61 1.69 1.64 1.51 1.46 1.43 1.41 1.63 1.91 2.11 2.32 2.37 2.44 2.57 2.65 2.66
1.15 1.31 1.41 1.45 1.53 1.56 1.60 1.78 2.00 2.19 2.24 2.22 2.26 2.15 2.07 2.10 1.93 1.59 1.44 1.41 1.57 1.61 1.60 1.57 1.54 1.51 1.55 1.42 1.40 1.44 1.43 1.40 1.25 1.24 1.32 1.52 1.71 1.76 1.95 2.21 2.43 2.42 2.37
1.48 1.54 1.71 1.87 2.03 2.10 2.15 2.23 2.28 2.37 2.33 2.33 2.27 2.24 2.17 2.15 2.04 1.54 1.31 1.31 1.50 1.55 1.62 1.60 1.49 1.37 1.33 1.22 1.22 1.37 1.35 1.33 1.34 1.27 1.18 1.20 1.28 1.42 1.49 1.56 1.86 2.07 1.99
1.78 1.85 2.03 2.33 2.49 2.48 2.49 2.44 2.37 2.38 2.40 2.37 2.27 2.23 2.18 2.10 2.01 1.59 1.40 1.41 1.56 1.65 1.64 1.61 1.55 1.41 1.21 1.16 1.12 1.19 1.24 1.21 1.27 1.30 1.27 1.22 1.30 1.41 1.37 1.33 1.48 1.67 1.73
2.08 2.22 2.39 2.61 2.55 2.47 2.64 2.57 2.54 2.60 2.57 2.44 2.33 2.23 2.24 2.19 2.00 1.68 1.44 1.48 1.62 1.75 1.81 1.77 1.68 1.45 1.21 1.11 1.04 1.04 1.01 0.94 0.98 1.12 1.15 1.11 1.14 1.24 1.32 1.30 1.33 1.37 1.42
2.32 2.44 2.50 2.55 2.69 2.83 2.88 2.77 2.69 2.66 2.58 2.39 2.27 2.14 2.06 2.11 2.13 1.72 1.44 1.49 1.57 1.61 1.79 1.82 1.56 1.32 1.15 1.00 0.98 0.97 0.88 0.81 0.93 1.00 0.98 0.96 0.95 1.05 1.25 1.38 1.42 1.42 1.37
2.18 2.17 2.23 2.35 2.46 2.55 2.79 2.85 2.75 2.61 2.53 2.46 2.36 2.19 2.08 2.10 2.10 1.76 1.45 1.43 1.50 1.48 1.56 1.63 1.48 1.30 1.15 1.03 0.97 0.93 0.88 0.90 0.99 1.00 1.01 1.04 1.04 1.10 1.18 1.26 1.37 1.42 1.40
2.13 2.07 2.03 2.05 2.16 2.24 2.33 2.43 2.40 2.37 2.19 2.10 2.00 1.93 1.90 1.93 1.90 1.64 1.44 1.42 1.52 1.58 1.54 1.56 1.55 1.41 1.28 1.17 1.14 1.17 1.18 1.13 1.06 1.04 1.08 1.10 1.09 1.09 1.14 1.20 1.27 1.31 1.25
1.97 1.90 1.91 1.91 1.99 2.03 2.01 1.93 1.77 1.69 1.54 1.39 1.33 1.27 1.29 1.34 1.45 1.29 1.15 1.23 1.38 1.44 1.35 1.37 1.48 1.47 1.40 1.32 1.26 1.26 1.25 1.19 1.12 1.11 1.10 1.09 1.07 1.05 1.08 1.12 1.15 1.17 1.15
1.94 1.79 1.68 1.65 1.72 1.73 1.77 1.87 1.91 1.69 1.48 1.28 1.14 1.00 0.98 1.07 1.15 1.15 1.08 1.09 1.18 1.21 1.16 1.22 1.32 1.37 1.33 1.30 1.24 1.22 1.17 1.18 1.18 1.13 1.09 1.10 1.09 1.04 1.04 1.07 1.09 1.15 1.14
1.88 1.77 1.66 1.63 1.68 1.71 1.74 1.81 1.92 1.90 1.64 1.29 1.13 1.02 0.88 0.84 0.85 0.88 0.87 0.91 0.99 1.02 1.03 1.10 1.15 1.20 1.21 1.22 1.20 1.19 1.15 1.16 1.15 1.13 1.10 1.10 1.10 1.07 1.07 1.09 1.05 1.07 1.13
1.73 1.65 1.59 1.60 1.61 1.63 1.72 1.78 1.79 1.82 1.70 1.46 1.22 0.99 0.83 0.71 0.71 0.75 0.72 0.77 0.93 0.97 0.96 0.99 1.00 1.01 1.05 1.09 1.09 1.13 1.12 1.09 1.09 1.14 1.11 1.09 1.11 1.14 1.15 1.14 1.14 1.15 1.15
1.60 1.48 1.37 1.38 1.41 1.40 1.45 1.53 1.53 1.57 1.53 1.41 1.25 0.98 0.75 0.66 0.71 0.78 0.76 0.86 0.96 0.95 0.90 0.93 0.88 0.87 0.92 0.99 1.05 1.11 1.10 1.12 1.16 1.15 1.13 1.13 1.12 1.13 1.12 1.13 1.16 1.19 1.20
1.54 1.33 1.08 0.98 1.06 1.17 1.28 1.36 1.35 1.34 1.35 1.31 1.13 0.86 0.64 0.56 0.66 0.79 0.88 0.91 0.91 0.90 0.86 0.81 0.77 0.79 0.85 0.91 0.97 1.00 1.06 1.14 1.13 1.11 1.14 1.11 1.06 1.07 1.06 1.08 1.08 1.09 1.14
1.43 1.29 1.10 0.98 1.01 1.07 1.15 1.26 1.27 1.21 1.19 1.14 1.02 0.81 0.64 0.55 0.64 0.75 0.82 0.82 0.80 0.81 0.78 0.74 0.72 0.76 0.80 0.85 0.92 0.97 1.01 1.04 1.05 1.06 1.08 1.07 1.07 1.06 1.07 1.13 1.14 1.13 1.14
1.34 1.27 1.15 1.05 1.07 1.06 1.10 1.18 1.15 1.08 1.03 0.98 0.91 0.80 0.70 0.70 0.74 0.80 0.82 0.81 0.79 0.75 0.73 0.72 0.69 0.68 0.74 0.80 0.82 0.88 0.94 0.94 0.95 0.98 1.04 1.08 1.08 1.10 1.14 1.18 1.15 1.12 1.12
1.18 1.14 1.02 0.96 0.98 1.01 0.98 1.00 0.96 0.92 0.88 0.85 0.80 0.77 0.75 0.76 0.78 0.77 0.79 0.77 0.74 0.67 0.63 0.65 0.67 0.69 0.73 0.77 0.76 0.76 0.79 0.81 0.82 0.87 0.93 1.00 1.04 1.12 1.20 1.23 1.20 1.16 1.21
1.08 1.10 1.02 0.94 0.92 0.93 0.91 0.90 0.87 0.85 0.82 0.77 0.74 0.72 0.71 0.72 0.73 0.76 0.75 0.70 0.64 0.63 0.60 0.61 0.67 0.68 0.64 0.64 0.65 0.65 0.72 0.72 0.70 0.77 0.89 1.02 1.06 1.14 1.26 1.30 1.29 1.28 1.35
0.97 0.99 0.95 0.88 0.84 0.84 0.84 0.89 0.88 0.81 0.76 0.71 0.70 0.70 0.65 0.60 0.59 0.61 0.61 0.60 0.60 0.60 0.60 0.61 0.63 0.64 0.63 0.61 0.62 0.66 0.66 0.64 0.66 0.74 0.77 0.85 0.98 1.08 1.17 1.22 1.19 1.25 1.33